Probability
0 0 0 0 0 0 0 0 0 0 0 0 0 0 0 0 0 0 0 0 0 0 0 0 0 0 0 3 3 3 3 0 0 0 0 0 0 0 0 0 0 0 0
0 0 0 0 0 0 0 0 0 0 0 0 0 0 0 0 0 0 0 0 0 0 0 0 0 0 0 0 3 3 6 3 0 0 0 0 0 0 0 0 0 0 0
0 0 0 0 0 0 0 0 0 0 0 0 0 0 0 0 0 0 0 0 0 0 0 0 0 0 0 0 0 0 0 6 0 0 3 0 0 0 0 0 0 0 0
0 0 0 0 0 0 0 0 0 0 0 0 0 0 0 0 0 0 0 0 0 0 0 0 0 0 0 0 0 0 0 0 0 0 0 0 0 0 0 0 0 0 0
0 0 0 0 0 0 0 0 0 0 0 0 0 0 0 0 0 0 0 0 0 0 0 0 0 0 0 0 0 0 0 0 0 0 0 0 0 0 0 3 0 0 0
0 0 0 0 0 0 0 0 0 0 0 0 0 0 0 0 0 0 0 0 0 0 0 0 0 0 0 0 0 0 0 0 0 0 0 0 0 0 3 0 3 3 0
0 0 0 0 0 0 0 0 0 0 0 0 0 0 0 0 0 0 0 0 0 0 0 0 0 0 0 0 0 0 0 0 0 0 0 0 0 0 3 3 0 3 3
0 0 0 0 0 0 0 0 0 0 0 0 0 0 0 0 0 0 0 0 0 0 0 0 0 0 0 0 0 0 0 0 0 0 0 0 0 0 0 3 3 0 0
0 0 0 0 0 0 0 0 0 0 0 0 0 0 0 0 0 0 0 0 0 0 0 0 0 0 0 0 0 0 0 0 0 0 0 0 0 0 0 0 0 3 3
0 0 0 0 0 0 0 0 0 0 0 0 0 0 0 0 0 0 0 0 0 0 0 0 0 0 0 0 0 0 0 0 0 0 0 0 0 0 0 0 0 0 0
0 0 0 0 0 0 0 0 0 0 0 0 0 0 0 0 0 0 0 0 0 0 0 0 0 0 0 0 0 0 0 0 0 0 0 0 0 0 0 0 0 0 0
0 0 0 0 0 0 0 0 0 0 0 0 0 0 0 0 0 0 0 0 0 0 0 0 0 0 0 0 0 0 0 0 0 0 0 0 0 0 0 0 0 0 3
0 0 0 0 0 0 0 0 0 0 0 0 0 0 0 0 0 0 0 0 0 0 0 0 0 0 0 0 0 0 0 0 0 0 0 0 0 0 0 0 0 0 0
0 0 0 0 0 0 0 0 0 0 0 0 0 0 0 0 0 0 0 0 0 0 0 0 0 0 0 0 0 0 0 0 0 0 0 0 0 0 0 0 0 0 0
0 0 0 0 0 0 0 0 0 0 0 0 0 0 0 0 0 0 0 0 0 0 0 0 0 0 0 0 0 0 0 0 0 0 0 0 0 0 0 0 0 0 0
0 0 0 0 0 0 0 0 0 0 0 0 0 0 0 0 0 0 0 0 0 0 0 0 0 0 0 0 0 0 0 0 0 0 0 0 0 0 0 0 0 0 0
0 0 0 0 0 0 0 0 0 0 0 0 0 0 0 0 0 0 0 0 0 0 0 0 0 0 0 0 0 0 0 0 0 0 0 0 0 0 0 0 0 0 0
0 0 0 0 0 0 0 0 0 0 0 0 0 0 0 0 0 0 0 0 0 0 0 0 0 0 0 0 0 0 0 0 0 0 0 0 0 0 0 0 0 0 0
0 0 0 0 0 0 0 0 0 0 0 0 0 0 0 0 0 0 0 0 0 0 0 0 0 0 0 0 0 0 0 0 0 0 0 0 0 0 0 0 0 0 0
0 0 0 0 0 0 0 0 0 0 0 0 0 0 0 0 0 0 0 0 0 0 0 0 0 0 0 0 0 0 0 0 0 0 0 0 0 0 0 0 0 0 0
0 0 0 0 0 0 0 0 0 0 0 0 0 0 0 0 0 0 0 0 0 0 0 0 0 0 0 0 0 0 0 0 0 0 0 0 0 0 0 0 0 0 0
0 0 0 0 0 0 0 0 0 0 0 0 0 0 0 0 0 0 0 0 0 0 0 0 0 0 0 0 0 0 0 0 0 0 0 0 0 0 0 0 0 0 0
0 0 0 0 0 0 0 0 0 0 0 0 0 0 0 0 0 0 0 0 0 0 0 0 0 0 0 0 0 0 0 0 0 0 0 0 0 0 0 0 0 0 0
0 0 0 0 0 0 0 0 0 0 0 0 0 0 0 0 0 0 0 0 0 0 0 0 0 0 0 0 0 0 0 0 0 0 0 0 0 0 0 0 0 0 0
0 0 0 0 0 0 0 0 0 0 0 0 0 0 0 0 0 0 0 0 0 0 0 0 0 0 0 0 0 0 0 0 0 0 0 0 0 0 0 0 0 0 0
0 0 0 0 0 0 0 0 0 0 0 0 0 0 0 0 0 0 0 0 0 0 0 0 0 0 0 0 0 0 0 0 0 0 0 0 0 0 0 0 0 0 0
Height
5828 5829 5829 5829 5829 5828 5828 5828 5827 5826 5825 5824 5823 5822 5821 5820 5819 5818 5817 5816 5816 5815 5814 5813 5812 5811 5810 5809 5808 5808 5807 5806 5806 5805 5804 5803 5803 5802 5801 5801 5800 5799 5799
5822 5823 5823 5823 5823 5822 5822 5822 5821 5820 5820 5819 5817 5816 5815 5814 5813 5812 5811 5810 5809 5808 5807 5806 5805 5804 5802 5801 5800 5799 5799 5798 5797 5797 5796 5795 5794 5794 5793 5793 5792 5792 5791
5816 5816 5817 5817 5817 5816 5816 5816 5815 5814 5813 5812 5811 5810 5809 5808 5807 5806 5804 5803 5802 5801 5799 5798 5797 5796 5794 5793 5792 5791 5790 5790 5789 5788 5787 5786 5786 5785 5785 5784 5784 5783 5783
5810 5810 5810 5810 5810 5810 5809 5809 5808 5808 5807 5806 5805 5804 5802 5801 5800 5799 5797 5796 5795 5794 5792 5791 5789 5788 5786 5785 5784 5783 5782 5781 5780 5779 5778 5777 5777 5776 5775 5775 5774 5774 5774
5804 5804 5804 5804 5803 5803 5802 5802 5801 5801 5800 5799 5798 5797 5795 5794 5793 5792 5790 5789 5788 5786 5785 5783 5782 5780 5778 5777 5776 5774 5773 5772 5771 5770 5769 5768 5767 5767 5766 5765 5765 5764 5764
5797 5797 5797 5797 5796 5796 5795 5795 5794 5793 5792 5791 5790 5789 5788 5786 5785 5784 5783 5781 5780 5779 5777 5775 5774 5772 5770 5769 5767 5766 5764 5763 5762 5761 5759 5758 5757 5757 5756 5755 5755 5754 5754
5789 5789 5789 5789 5789 5788 5788 5787 5786 5785 5784 5783 5782 5781 5780 5778 5777 5776 5775 5773 5772 5771 5769 5767 5766 5764 5762 5760 5758 5757 5755 5754 5752 5751 5750 5749 5748 5747 5746 5745 5744 5744 5743
5781 5781 5781 5781 5780 5780 5779 5779 5778 5777 5776 5775 5774 5773 5772 5771 5769 5768 5766 5765 5764 5762 5760 5759 5757 5755 5753 5751 5749 5748 5746 5744 5743 5741 5740 5739 5738 5736 5735 5734 5733 5733 5732
5773 5773 5773 5773 5772 5772 5771 5770 5769 5768 5767 5766 5765 5764 5763 5762 5761 5759 5757 5756 5754 5753 5751 5749 5748 5746 5744 5742 5740 5738 5736 5734 5732 5731 5729 5728 5727 5726 5724 5723 5722 5721 5720
5765 5765 5765 5764 5764 5763 5762 5761 5760 5760 5759 5758 5756 5755 5754 5753 5752 5751 5749 5747 5745 5743 5741 5739 5738 5736 5734 5732 5730 5728 5726 5724 5722 5720 5718 5717 5716 5714 5713 5711 5710 5709 5708
5757 5757 5756 5755 5755 5754 5753 5752 5751 5751 5749 5749 5747 5746 5744 5743 5742 5741 5740 5738 5735 5733 5731 5729 5727 5725 5723 5721 5719 5717 5715 5713 5711 5709 5707 5705 5704 5702 5701 5700 5698 5696 5695
5748 5748 5747 5747 5746 5745 5744 5743 5742 5741 5740 5739 5738 5736 5735 5734 5732 5731 5730 5728 5726 5723 5721 5719 5716 5714 5712 5710 5708 5706 5704 5701 5699 5697 5695 5694 5692 5690 5688 5687 5685 5683 5682
5739 5739 5738 5737 5737 5736 5735 5734 5733 5732 5731 5729 5728 5726 5725 5723 5722 5720 5719 5718 5716 5714 5711 5708 5706 5703 5701 5699 5696 5694 5692 5690 5687 5685 5683 5681 5679 5677 5675 5673 5671 5670 5668
5730 5729 5728 5728 5727 5726 5725 5724 5723 5722 5720 5719 5718 5716 5714 5713 5711 5709 5708 5706 5705 5703 5700 5697 5695 5692 5689 5687 5685 5682 5680 5678 5675 5673 5670 5668 5666 5664 5662 5659 5657 5655 5654
5720 5719 5718 5718 5717 5716 5715 5714 5713 5711 5710 5708 5706 5705 5703 5701 5699 5697 5696 5694 5693 5691 5689 5686 5683 5680 5677 5675 5672 5670 5667 5665 5662 5660 5657 5655 5652 5650 5647 5645 5642 5640 5639
5710 5709 5708 5707 5706 5705 5704 5703 5701 5700 5698 5696 5695 5693 5691 5689 5687 5685 5683 5681 5679 5678 5676 5673 5670 5667 5665 5662 5660 5657 5654 5652 5649 5646 5644 5641 5638 5636 5633 5630 5627 5626 5624
5700 5699 5698 5697 5695 5694 5693 5691 5689 5688 5686 5684 5682 5681 5679 5677 5675 5673 5670 5668 5666 5664 5663 5660 5657 5654 5652 5649 5646 5644 5641 5638 5635 5632 5630 5627 5624 5621 5618 5615 5613 5611 5610
5689 5688 5687 5685 5684 5682 5681 5679 5677 5675 5674 5672 5670 5668 5666 5664 5662 5659 5657 5655 5653 5650 5648 5646 5643 5640 5638 5635 5632 5629 5626 5624 5621 5618 5615 5613 5610 5607 5604 5601 5598 5596 5594
5678 5676 5675 5674 5672 5670 5668 5667 5665 5663 5661 5659 5657 5655 5653 5651 5648 5646 5644 5641 5639 5636 5634 5632 5629 5626 5623 5621 5618 5615 5612 5609 5606 5603 5601 5598 5595 5592 5589 5586 5583 5581 5579
5667 5665 5663 5662 5660 5658 5656 5654 5652 5650 5648 5645 5643 5641 5639 5637 5635 5632 5630 5627 5625 5622 5620 5617 5615 5612 5609 5606 5604 5601 5598 5594 5592 5588 5585 5582 5579 5576 5573 5570 5567 5565 5563
5655 5653 5652 5650 5648 5646 5643 5641 5639 5637 5634 5632 5630 5628 5625 5623 5621 5618 5616 5614 5611 5608 5606 5603 5601 5598 5595 5592 5589 5586 5583 5580 5577 5574 5571 5567 5564 5560 5557 5553 5550 5548 5546
5644 5642 5640 5637 5635 5633 5630 5628 5626 5623 5621 5619 5616 5614 5612 5609 5607 5604 5602 5600 5597 5595 5592 5589 5586 5583 5580 5577 5574 5571 5568 5566 5563 5560 5556 5552 5548 5545 5541 5537 5534 5531 5529
5632 5630 5627 5625 5622 5619 5617 5614 5612 5610 5607 5605 5602 5600 5598 5595 5593 5590 5588 5585 5583 5580 5578 5575 5572 5569 5566 5563 5560 5557 5553 5550 5546 5543 5540 5537 5532 5528 5524 5520 5517 5514 5512
5620 5617 5615 5612 5609 5606 5603 5601 5598 5596 5594 5591 5588 5586 5584 5581 5579 5576 5574 5571 5569 5566 5564 5561 5558 5555 5552 5548 5545 5542 5538 5535 5532 5527 5524 5522 5517 5513 5509 5504 5500 5497 5496
5608 5605 5602 5599 5596 5593 5590 5587 5585 5583 5580 5577 5574 5572 5570 5567 5565 5563 5561 5558 5555 5552 5549 5546 5544 5540 5537 5534 5531 5527 5524 5520 5517 5513 5509 5506 5503 5499 5495 5490 5485 5481 5479
5595 5592 5589 5586 5583 5580 5577 5574 5571 5569 5567 5564 5561 5558 5556 5553 5551 5548 5546 5544 5541 5538 5536 5533 5530 5526 5523 5520 5516 5513 5510 5506 5502 5499 5495 5492 5488 5484 5482 5478 5472 5467 5464
Wind_Speed
26 26 26 26 26 26 26 26 26 26 26 25 26 26 27 27 28 28 30 30 31 32 32 32 32 33 33 33 34 34 34 34 34 35 35 35 35 35 35 35 35 35 35
27 27 27 28 28 28 27 27 27 27 27 27 27 27 27 27 28 29 30 31 32 32 33 33 34 34 35 35 35 35 36 36 36 36 36 36 36 36 36 36 36 36 36
27 28 28 29 29 29 29 29 28 29 29 29 29 29 29 29 29 30 30 31 32 32 33 34 34 35 35 35 35 35 36 36 37 37 38 38 38 38 38 38 38 38 38
28 29 30 30 30 30 30 30 30 30 30 30 30 30 31 31 31 31 31 31 31 32 32 33 34 35 35 36 36 36 37 37 38 38 38 38 39 39 39 40 40 39 40
30 31 31 31 32 32 32 32 32 32 32 32 32 32 33 33 33 33 32 32 32 33 33 33 33 34 35 36 36 37 37 38 39 39 40 39 39 40 40 40 40 40 41
32 32 32 33 33 33 33 33 34 34 34 34 34 34 35 35 34 34 34 33 33 33 34 34 34 35 35 36 36 37 38 39 40 40 41 40 39 40 40 41 41 42 42
32 33 34 34 34 34 35 35 35 35 35 35 35 35 35 35 35 35 35 35 35 35 35 36 36 36 36 37 37 38 39 40 40 41 42 42 42 42 42 41 42 44 44
33 34 35 37 37 36 36 36 36 36 36 36 36 35 35 36 36 37 37 37 37 37 37 37 37 37 38 38 39 40 40 40 41 42 42 43 43 43 43 43 44 44 45
36 36 36 36 37 37 37 37 37 37 37 37 37 37 36 36 37 37 38 38 39 39 39 39 39 39 39 40 41 41 42 42 43 43 44 44 44 44 45 45 45 45 46
39 38 38 38 38 38 38 38 38 38 37 37 38 38 38 38 38 38 39 40 40 40 41 41 41 41 42 42 43 43 44 44 44 44 44 44 45 45 45 45 45 46 47
41 40 40 39 39 38 38 38 38 38 38 38 39 39 39 40 40 40 40 40 41 41 42 43 43 44 44 43 44 44 44 44 43 44 44 44 45 45 46 46 46 46 47
40 41 41 41 40 39 39 38 38 39 39 39 40 40 40 41 41 41 41 41 41 42 43 43 44 44 44 44 44 44 44 44 44 45 45 46 46 46 47 48 48 47 47
40 41 42 42 41 40 39 39 39 40 40 41 41 42 42 42 42 42 43 43 43 43 44 44 44 45 45 44 44 44 44 44 45 45 45 46 46 47 48 49 49 49 50
41 41 41 42 42 42 42 41 42 42 43 43 44 44 44 45 45 45 45 45 44 44 44 45 46 46 45 45 45 45 45 45 46 46 46 46 47 48 49 50 49 48 49
42 43 43 43 43 44 45 44 44 45 45 45 46 47 47 47 47 47 48 48 48 47 46 46 47 46 46 46 45 45 46 47 47 48 48 49 50 50 50 50 50 49 49
43 43 44 44 45 46 46 47 46 46 46 47 48 49 49 49 49 50 50 50 50 50 50 50 49 48 48 48 48 48 48 48 49 49 49 50 51 51 51 50 50 50 50
44 45 45 45 46 46 47 47 48 48 48 49 48 49 50 51 51 51 52 52 52 52 52 51 51 50 50 50 50 50 50 50 51 51 51 50 51 51 51 51 51 51 52
45 45 46 46 47 47 47 48 49 49 50 51 50 49 50 50 51 52 53 53 53 53 53 52 52 51 51 51 50 51 51 52 52 52 51 51 51 51 51 52 52 52 52
44 45 45 46 47 47 47 47 48 49 50 50 51 51 51 51 52 52 52 53 52 52 52 52 51 51 51 51 51 52 52 52 52 52 52 52 51 51 51 51 51 52 53
44 45 45 46 46 47 48 48 48 49 49 50 51 51 51 52 52 52 52 52 51 51 52 52 51 51 51 51 52 52 52 53 53 53 53 53 53 53 52 52 52 52 53
44 45 46 46 47 47 48 49 49 50 50 50 51 51 51 51 51 51 51 51 51 51 51 51 51 51 51 52 52 52 52 52 52 52 53 53 53 53 53 54 54 54 53
44 45 46 47 47 48 49 49 50 50 51 51 51 51 51 51 51 51 51 51 51 51 51 51 51 51 51 52 52 52 52 52 52 53 53 53 54 54 54 54 54 54 53
44 45 46 46 47 48 49 50 50 50 50 51 52 52 51 51 51 51 51 51 51 51 51 51 51 52 52 52 52 52 51 51 52 52 52 52 53 53 53 53 53 53 53
45 45 46 47 47 48 49 49 49 49 49 50 50 51 51 51 51 51 51 50 51 51 51 51 51 51 51 51 51 51 51 51 52 52 52 51 51 51 51 52 52 52 52
45 46 46 46 47 47 48 49 49 49 49 49 49 50 50 50 50 50 49 49 50 50 50 50 50 50 50 50 50 50 50 50 50 50 50 49 49 49 49 50 50 50 50
46 46 46 47 47 48 48 48 48 48 48 48 49 49 49 49 48 48 48 48 48 48 48 49 49 50 49 49 49 50 50 49 49 48 48 48 48 48 47 48 48 48 48
Wind_Direction
268 271 273 274 275 276 278 280 282 283 285 287 287 287 287 287 286 285 284 284 284 284 284 283 284 284 284 284 284 283 283 283 284 284 284 284 284 283 282 282 282 282 282
268 270 272 273 274 276 277 279 281 283 284 286 287 287 288 287 287 287 287 286 286 285 285 284 284 284 284 284 284 283 283 283 283 284 283 283 282 281 282 281 281 281 282
268 270 271 273 274 275 276 279 280 281 283 284 286 287 287 287 287 287 287 287 286 286 286 285 284 284 284 284 284 283 283 283 283 284 283 283 282 281 280 280 280 280 281
269 270 271 273 274 275 277 279 281 282 282 283 284 285 286 287 287 287 287 287 287 287 287 287 286 285 285 284 284 284 284 283 283 283 283 282 281 281 281 280 279 279 280
269 271 271 273 274 276 277 278 280 281 282 283 283 285 285 286 286 286 286 287 286 287 288 288 287 287 286 285 285 285 285 284 283 282 282 282 281 281 281 280 279 279 279
269 270 271 273 274 275 277 278 279 280 281 282 283 284 284 285 285 285 285 285 286 287 287 288 288 287 287 286 286 286 285 284 283 282 282 282 282 281 280 280 279 279 279
269 270 270 272 273 275 277 278 279 280 281 282 283 283 283 284 284 284 284 284 285 287 287 287 287 287 287 286 286 286 285 284 283 282 282 282 282 281 280 280 279 278 278
270 270 270 271 273 276 277 278 279 280 281 282 282 283 283 283 284 284 284 284 285 286 287 287 287 287 287 286 286 286 285 284 284 283 283 282 282 282 281 281 280 278 277
272 272 271 273 274 275 276 277 278 279 280 281 281 282 281 281 283 284 285 285 285 286 286 287 286 287 287 286 286 286 285 284 283 283 282 282 281 281 282 282 281 279 277
272 274 272 274 275 276 276 275 277 278 279 280 281 281 281 281 282 281 283 285 286 287 287 287 286 286 286 286 286 285 284 284 283 283 282 282 281 281 282 282 282 280 278
271 272 274 275 275 276 277 277 276 277 278 279 280 281 281 282 282 283 284 285 286 286 286 286 286 286 286 286 285 285 284 284 283 283 282 281 281 281 282 283 282 281 279
272 273 274 275 275 276 277 278 277 277 278 279 280 280 281 282 283 283 283 284 285 285 286 286 287 287 286 286 285 285 284 284 283 283 282 282 282 282 283 283 282 280 278
272 274 274 275 276 276 277 278 278 278 279 279 281 281 281 282 282 283 283 283 284 285 286 287 287 288 287 286 285 285 285 285 284 284 284 283 283 283 283 283 283 280 277
273 274 275 276 277 277 277 278 278 278 279 280 280 282 282 282 283 283 283 284 284 285 286 287 287 287 286 286 286 286 286 285 285 285 285 284 284 283 284 283 282 280 278
274 275 276 277 277 278 278 279 279 279 279 279 280 281 281 282 282 283 283 284 284 284 285 286 286 286 286 286 286 286 286 286 285 285 286 284 284 285 285 284 282 280 278
275 276 277 278 278 278 279 279 280 279 279 280 280 280 280 281 282 283 283 284 284 285 285 286 286 285 286 286 286 287 286 285 286 286 286 286 285 285 285 284 283 281 280
277 277 278 279 280 280 280 281 281 281 281 281 281 281 281 281 282 283 283 284 284 285 285 286 286 286 286 287 286 286 286 286 286 287 287 287 286 286 285 284 283 282 280
278 279 279 279 280 281 281 282 282 282 282 281 282 282 283 283 283 283 283 284 284 285 285 286 286 286 287 287 287 287 286 286 286 286 287 288 287 287 286 285 284 282 280
279 279 280 280 281 281 282 283 283 283 282 282 283 283 283 284 284 284 284 284 284 285 286 286 286 286 286 287 287 287 287 286 286 286 287 288 287 287 286 285 284 282 280
280 281 281 282 282 282 283 283 283 283 283 283 283 283 283 284 284 284 284 285 285 285 285 286 286 286 286 287 287 287 286 286 286 286 287 287 287 287 286 284 284 282 281
282 282 283 283 283 284 284 283 283 283 284 284 283 283 283 283 284 284 285 285 285 285 285 286 286 286 287 287 287 286 286 286 287 287 287 287 287 287 287 285 283 282 281
283 283 284 284 284 284 284 284 284 284 284 284 284 283 283 283 283 284 284 285 285 285 286 286 286 287 287 288 288 287 287 287 287 287 288 288 287 287 286 285 283 282 281
285 285 285 285 285 284 284 285 284 284 284 284 283 283 283 283 283 284 284 284 285 285 286 287 287 288 289 289 289 289 289 288 288 288 289 289 288 288 287 286 284 281 280
287 287 287 286 286 285 285 285 285 285 284 284 284 283 283 283 284 284 284 284 285 285 286 287 288 289 289 290 290 290 289 289 289 289 290 289 289 289 289 288 286 284 282
288 288 289 288 287 286 285 285 286 286 285 284 284 283 284 284 284 285 285 285 285 286 287 288 289 290 290 291 291 291 290 290 290 290 290 290 290 290 290 289 287 286 284
289 290 290 288 287 287 287 286 286 286 285 285 284 284 284 284 284 285 285 285 285 286 287 288 289 290 291 291 292 292 292 291 291 291 290 291 291 290 290 290 288 287 286